{"data":{"norad_id":55352,"intl_designator":"2023-013X","name":"STARLINK-5547","alt_names":[],"object_type":"PAYLOAD","status":"ACTIVE","operator":null,"country":"US","launch_date":"2023-01-26","launch_site_code":"AFETR","launch_vehicle":null,"mission":null,"orbit_class":"UNKNOWN","rcs_meters":null,"size_class":null,"mass_kg":null,"dimensions":null,"purposes":["comms"],"wikipedia_slug":null,"has_3d_model":false,"image_url":null,"decayed_at":null,"tle_current":{"epoch":"2026-09-20T13:02:02.563872Z","epoch_age_seconds":92792,"freshness":"FRESH","line1":"1 55352U 23013X   26263.54308523 -.00000622  00000+0 -13091-4 0  9997","line2":"2 55352  43.0013 279.5766 0000966 270.7267  89.3474 15.27574703201512","mean_motion":15.27574703,"eccentricity":9.66e-5,"inclination_deg":43.0013,"raan_deg":279.5766,"arg_perigee_deg":270.7267,"mean_anomaly_deg":89.3474,"bstar":-1.3091e-5,"rev_number":20151,"period_min":94.267075591916,"perigee_km":482.40216510001,"apogee_km":483.72774931814,"semimajor_km":6861.2019572091,"source":"CELESTRAK","updated_at":"2026-09-21T09:00:33.183273Z"}}}